Regional Weather Roundup
Issued by NWS

Home | Current Version | Previous Version | Graphics & Text | Print | Product List | Glossary On
Versions: 1 2 3 4 5 6 7 8 9 10 11 12 13 14 15 16 17 18 19 20 21 22 23 24 25 26 27 28 29 30 31 32 33 34 35 36 37 38 39 40 41 42 43 44 45 46 47 48 49 50
000
ASUS43 KBIS 262010
RWRND

NORTH DAKOTA REGIONAL WEATHER ROUNDUP
NATIONAL WEATHER SERVICE BISMARCK ND
300 PM CDT TUE JUL 26 2016

NOTE: "FAIR" INDICATES FEW OR NO CLOUDS BELOW 12,000 FEET WITH NO
SIGNIFICANT WEATHER AND/OR OBSTRUCTIONS TO VISIBILITY.


NDZ001>003-009>011-017-262100-
NORTHWEST NORTH DAKOTA

CITY           SKY/WX    TMP DP  RH WIND       PRES   REMARKS
WILLISTON      CLOUDY    79  59  50 N15       30.07F
MINOT          CLOUDY    82  65  56 NW14      30.04R
MINOT AFB      CLOUDY    79  62  55 N12       30.03S
$$

NDZ018>021-031>035-040>046-262100-
SOUTHWEST NORTH DAKOTA

CITY           SKY/WX    TMP DP  RH WIND       PRES   REMARKS
BISMARCK       CLOUDY    80  66  62 N14G24    29.96R
DICKINSON      CLOUDY    74  61  63 N13       30.05S
GARRISON         N/A     76  67  73 N9G17     30.02S
HETTINGER ARPT CLOUDY    83  54  36 N15       30.03F
$$

NDZ004>008-012>016-024-026-027-054-262100-
NORTHEAST NORTH DAKOTA

CITY           SKY/WX    TMP DP  RH WIND       PRES   REMARKS
GRAND FORKS    MOSUNNY   86  64  47 NE10      29.94F
GRND FRKS AFB  MOSUNNY   85  64  48 E6        29.96S
DEVILS LAKE    CLOUDY    82  63  52 NW5       30.01
$$

NDZ022-023-025-028>030-036>039-047>053-262100-
SOUTHEAST NORTH DAKOTA

CITY           SKY/WX    TMP DP  RH WIND       PRES   REMARKS
FARGO          MOSUNNY   85  68  56 NW3       29.94R
JAMESTOWN      LGT RAIN  76  69  79 W7        29.98S
$$




USA.gov is the U.S. government's official web portal to all federal, state and local government web resources and services.